Time,TemperatureF,DewpointF,PressureIn,WindDirection,WindDirectionDegrees,WindSpeedMPH,WindSpeedGustMPH,Humidity,HourlyPrecipIn,Conditions,Clouds,dailyrainin,SoftwareType,DateUTC
2013-03-16 00:02:00,42.0,26.0,-100.00,WSW,248,17.0,26.0,53,0.00,,,-99.99,,2013-03-16 06:02:00,
2013-03-16 00:12:00,41.0,26.0,-100.00,SW,232,13.0,20.0,55,0.00,,,-99.99,,2013-03-16 06:12:00,
2013-03-16 00:22:00,41.0,23.0,-100.00,SSW,205,14.0,18.0,48,0.00,,,-99.99,,2013-03-16 06:22:00,
2013-03-16 00:32:00,41.0,22.0,-100.00,SSW,206,16.0,21.0,47,0.00,,,-99.99,,2013-03-16 06:32:00,
2013-03-16 00:42:00,41.0,22.0,-100.00,SSW,212,17.0,23.0,45,0.00,,,-99.99,,2013-03-16 06:42:00,
2013-03-16 00:52:00,41.0,22.0,-100.00,SW,215,16.0,20.0,48,0.00,,,-99.99,,2013-03-16 06:52:00,
2013-03-16 01:02:00,41.0,22.0,-100.00,SSW,212,17.0,21.0,48,0.00,,,-99.99,,2013-03-16 07:02:00,
2013-03-16 01:12:00,40.0,22.0,-100.00,SSW,209,17.0,22.0,48,0.00,,,-99.99,,2013-03-16 07:12:00,
2013-03-16 01:22:00,40.0,22.0,-100.00,SSW,208,18.0,22.0,49,0.00,,,-99.99,,2013-03-16 07:22:00,
2013-03-16 01:32:00,40.0,22.0,-100.00,SSW,208,17.0,24.0,49,0.00,,,-99.99,,2013-03-16 07:32:00,
2013-03-16 01:42:00,40.0,22.0,-100.00,SSW,205,19.0,23.0,49,0.00,,,-99.99,,2013-03-16 07:42:00,
2013-03-16 01:52:00,40.0,22.0,-100.00,SSW,203,19.0,23.0,49,0.00,,,-99.99,,2013-03-16 07:52:00,
2013-03-16 02:02:00,39.0,22.0,-100.00,SSW,206,19.0,24.0,51,0.00,,,-99.99,,2013-03-16 08:02:00,
2013-03-16 02:12:00,39.0,22.0,-100.00,SSW,210,19.0,22.0,51,0.00,,,-99.99,,2013-03-16 08:12:00,
2013-03-16 02:23:00,39.0,22.0,-100.00,SSW,209,19.0,24.0,51,0.00,,,-99.99,,2013-03-16 08:23:00,
2013-03-16 02:32:00,39.0,22.0,-100.00,SSW,206,19.0,23.0,51,0.00,,,-99.99,,2013-03-16 08:32:00,
2013-03-16 02:42:00,39.0,22.0,-100.00,SSW,205,18.0,22.0,50,0.00,,,-99.99,,2013-03-16 08:42:00,
2013-03-16 02:52:00,39.0,21.0,-100.00,SSW,206,17.0,21.0,49,0.00,,,-99.99,,2013-03-16 08:52:00,
2013-03-16 03:01:00,38.0,22.0,-100.00,SW,216,14.0,19.0,53,0.00,,,-99.99,,2013-03-16 09:01:00,
2013-03-16 03:12:00,36.0,22.0,-100.00,SW,233,12.0,17.0,58,0.00,,,-99.99,,2013-03-16 09:12:00,
2013-03-16 03:22:00,36.0,22.0,-100.00,SW,220,16.0,19.0,56,0.00,,,-99.99,,2013-03-16 09:22:00,
2013-03-16 03:32:00,36.0,22.0,-100.00,SW,216,16.0,20.0,57,0.00,,,-99.99,,2013-03-16 09:32:00,
2013-03-16 03:42:00,36.0,22.0,-100.00,SSW,209,16.0,20.0,55,0.00,,,-99.99,,2013-03-16 09:42:00,
2013-03-16 03:52:00,36.0,22.0,-100.00,SW,216,15.0,19.0,55,0.00,,,-99.99,,2013-03-16 09:52:00,
2013-03-16 04:03:00,36.0,21.0,-100.00,SW,220,14.0,16.0,55,0.00,,,-99.99,,2013-03-16 10:03:00,
2013-03-16 04:12:00,35.0,21.0,-100.00,SW,227,13.0,16.0,56,0.00,,,-99.99,,2013-03-16 10:12:00,
2013-03-16 04:22:00,32.0,24.0,-100.00,WSW,258,11.0,15.0,71,0.00,,,-99.99,,2013-03-16 10:22:00,
2013-03-16 04:32:00,33.0,23.0,-100.00,WSW,247,11.0,12.0,68,0.00,,,-99.99,,2013-03-16 10:32:00,
2013-03-16 04:42:00,31.0,24.0,-100.00,West,264,10.0,11.0,73,0.00,,,-99.99,,2013-03-16 10:42:00,
2013-03-16 04:52:00,32.0,23.0,-100.00,WSW,244,10.0,12.0,70,0.00,,,-99.99,,2013-03-16 10:52:00,
2013-03-16 05:03:00,35.0,21.0,-100.00,SW,230,12.0,15.0,57,0.00,,,-99.99,,2013-03-16 11:03:00,
2013-03-16 05:12:00,34.0,21.0,-100.00,SW,232,12.0,14.0,59,0.00,,,-99.99,,2013-03-16 11:12:00,
2013-03-16 05:22:00,34.0,21.0,-100.00,SW,220,9.0,12.0,58,0.00,,,-99.99,,2013-03-16 11:22:00,
2013-03-16 05:32:00,29.0,23.0,-100.00,East,88,4.0,7.0,80,0.00,,,-99.99,,2013-03-16 11:32:00,
2013-03-16 05:42:00,29.0,24.0,-100.00,ENE,58,4.0,8.0,79,0.00,,,-99.99,,2013-03-16 11:42:00,
2013-03-16 05:52:00,30.0,24.0,-100.00,ENE,69,8.0,13.0,80,0.00,,,-99.99,,2013-03-16 11:52:00,
2013-03-16 06:02:00,29.0,24.0,-100.00,ENE,71,6.0,11.0,81,0.00,,,-99.99,,2013-03-16 12:02:00,
2013-03-16 06:12:00,30.0,24.0,-100.00,ENE,59,4.0,7.0,81,0.00,,,-99.99,,2013-03-16 12:12:00,
2013-03-16 06:22:00,34.0,22.0,-100.00,SW,222,6.0,10.0,60,0.00,,,-99.99,,2013-03-16 12:22:00,
2013-03-16 06:32:00,36.0,21.0,-100.00,SW,215,7.0,13.0,55,0.00,,,-99.99,,2013-03-16 12:32:00,
2013-03-16 06:42:00,35.0,22.0,-100.00,SSW,205,5.0,11.0,58,0.00,,,-99.99,,2013-03-16 12:42:00,
2013-03-16 06:52:00,35.0,21.0,-100.00,SW,220,4.0,9.0,55,0.00,,,-99.99,,2013-03-16 12:52:00,
2013-03-16 07:02:00,38.0,20.0,-100.00,SSW,195,12.0,18.0,48,0.00,,,-99.99,,2013-03-16 13:02:00,
2013-03-16 07:12:00,38.0,20.0,-100.00,SSW,193,14.0,18.0,49,0.00,,,-99.99,,2013-03-16 13:12:00,
2013-03-16 07:22:00,38.0,20.0,-100.00,SSW,199,15.0,19.0,49,0.00,,,-99.99,,2013-03-16 13:22:00,
2013-03-16 07:32:00,38.0,20.0,-100.00,SSW,200,15.0,18.0,49,0.00,,,-99.99,,2013-03-16 13:32:00,
2013-03-16 07:42:00,38.0,20.0,-100.00,SSW,196,16.0,22.0,49,0.00,,,-99.99,,2013-03-16 13:42:00,
2013-03-16 07:52:00,38.0,20.0,-100.00,SSW,198,16.0,22.0,49,0.00,,,-99.99,,2013-03-16 13:52:00,
2013-03-16 08:02:00,38.0,21.0,-100.00,SSW,195,16.0,22.0,49,0.00,,,-99.99,,2013-03-16 14:02:00,
2013-03-16 08:12:00,38.0,21.0,-100.00,SSW,196,16.0,22.0,49,0.00,,,-99.99,,2013-03-16 14:12:00,
2013-03-16 08:22:00,38.0,21.0,-100.00,SSW,198,17.0,22.0,49,0.00,,,-99.99,,2013-03-16 14:22:00,
2013-03-16 08:32:00,39.0,21.0,-100.00,SSW,199,17.0,21.0,49,0.00,,,-99.99,,2013-03-16 14:32:00,
2013-03-16 08:42:00,39.0,21.0,-100.00,SSW,202,17.0,24.0,48,0.00,,,-99.99,,2013-03-16 14:42:00,
2013-03-16 08:52:00,39.0,22.0,-100.00,SSW,209,16.0,22.0,50,0.00,,,-99.99,,2013-03-16 14:52:00,
2013-03-16 09:02:00,39.0,22.0,-100.00,SSW,212,17.0,22.0,49,0.00,,,-99.99,,2013-03-16 15:02:00,
2013-03-16 09:12:00,39.0,22.0,-100.00,SSW,212,18.0,26.0,50,0.00,,,-99.99,,2013-03-16 15:12:00,
2013-03-16 09:22:00,40.0,22.0,-100.00,SW,219,21.0,27.0,49,0.00,,,-99.99,,2013-03-16 15:22:00,
2013-03-16 09:33:00,40.0,22.0,-100.00,SW,217,22.0,30.0,48,0.00,,,-99.99,,2013-03-16 15:33:00,
2013-03-16 09:43:00,40.0,22.0,-100.00,SW,220,24.0,30.0,48,0.00,,,-99.99,,2013-03-16 15:43:00,
2013-03-16 09:52:00,40.0,23.0,-100.00,SW,219,22.0,27.0,49,0.00,,,-99.99,,2013-03-16 15:52:00,
2013-03-16 10:03:00,40.0,22.0,-100.00,SW,222,22.0,30.0,47,0.00,,,-99.99,,2013-03-16 16:03:00,
2013-03-16 10:12:00,40.0,22.0,-100.00,SW,220,23.0,30.0,48,0.00,,,-99.99,,2013-03-16 16:12:00,
2013-03-16 10:22:00,41.0,22.0,-100.00,SW,223,24.0,34.0,47,0.00,,,-99.99,,2013-03-16 16:22:00,
2013-03-16 10:33:00,41.0,22.0,-100.00,SW,227,23.0,34.0,45,0.00,,,-99.99,,2013-03-16 16:33:00,
2013-03-16 10:42:00,41.0,22.0,-100.00,SW,226,26.0,35.0,46,0.00,,,-99.99,,2013-03-16 16:42:00,
2013-03-16 10:52:00,41.0,22.0,-100.00,SW,230,25.0,31.0,45,0.00,,,-99.99,,2013-03-16 16:52:00,
2013-03-16 11:03:00,41.0,21.0,-100.00,WSW,239,27.0,36.0,44,0.00,,,-99.99,,2013-03-16 17:03:00,
2013-03-16 11:12:00,41.0,22.0,-100.00,WSW,241,29.0,37.0,45,0.00,,,-99.99,,2013-03-16 17:12:00,
2013-03-16 11:22:00,40.0,22.0,-100.00,WSW,240,29.0,37.0,48,0.00,,,-99.99,,2013-03-16 17:22:00,
2013-03-16 11:32:00,40.0,24.0,-100.00,WSW,237,26.0,35.0,52,0.00,,,-99.99,,2013-03-16 17:32:00,
2013-03-16 11:42:00,40.0,25.0,-100.00,SW,217,26.0,36.0,56,0.00,,,-99.99,,2013-03-16 17:42:00,
2013-03-16 11:52:00,41.0,24.0,-100.00,SW,215,21.0,29.0,50,0.00,,,-99.99,,2013-03-16 17:52:00,
2013-03-16 12:02:00,41.0,24.0,-100.00,SW,223,23.0,30.0,50,0.00,,,-99.99,,2013-03-16 18:02:00,
2013-03-16 12:13:00,41.0,23.0,-100.00,SW,222,26.0,32.0,50,0.00,,,-99.99,,2013-03-16 18:13:00,
2013-03-16 12:22:00,40.0,26.0,-100.00,SSW,205,24.0,32.0,58,0.00,,,-99.99,,2013-03-16 18:22:00,
2013-03-16 12:33:00,40.0,26.0,-100.00,SSW,209,26.0,34.0,57,0.00,,,-99.99,,2013-03-16 18:33:00,
2013-03-16 12:42:00,41.0,25.0,-100.00,SW,215,26.0,35.0,52,0.00,,,-99.99,,2013-03-16 18:42:00,
2013-03-16 12:52:00,41.0,24.0,-100.00,SW,219,26.0,36.0,49,0.00,,,-99.99,,2013-03-16 18:52:00,
2013-03-16 13:02:00,41.0,24.0,-100.00,SW,220,26.0,34.0,49,0.00,,,-99.99,,2013-03-16 19:02:00,
2013-03-16 13:12:00,42.0,23.0,-100.00,SW,220,26.0,34.0,48,0.00,,,-99.99,,2013-03-16 19:12:00,
2013-03-16 13:22:00,42.0,24.0,-100.00,SW,229,24.0,32.0,48,0.00,,,-99.99,,2013-03-16 19:22:00,
2013-03-16 13:32:00,41.0,24.0,-100.00,SW,227,24.0,32.0,51,0.00,,,-99.99,,2013-03-16 19:32:00,
2013-03-16 13:42:00,41.0,25.0,-100.00,SW,223,23.0,30.0,52,0.00,,,-99.99,,2013-03-16 19:42:00,
2013-03-16 13:52:00,42.0,25.0,-100.00,SW,226,24.0,30.0,51,0.00,,,-99.99,,2013-03-16 19:52:00,
2013-03-16 14:02:00,43.0,20.0,-100.00,WSW,237,26.0,34.0,40,0.00,,,-99.99,,2013-03-16 20:02:00,
2013-03-16 14:12:00,43.0,18.0,-100.00,WSW,244,27.0,34.0,37,0.00,,,-99.99,,2013-03-16 20:12:00,
2013-03-16 14:22:00,42.0,20.0,-100.00,WSW,239,26.0,34.0,41,0.00,,,-99.99,,2013-03-16 20:22:00,
2013-03-16 14:32:00,43.0,18.0,-100.00,WSW,240,27.0,34.0,37,0.00,,,-99.99,,2013-03-16 20:32:00,
2013-03-16 14:42:00,43.0,19.0,-100.00,WSW,237,26.0,33.0,37,0.00,,,-99.99,,2013-03-16 20:42:00,
2013-03-16 14:52:00,43.0,16.0,-100.00,SW,234,25.0,32.0,32,0.00,,,-99.99,,2013-03-16 20:52:00,
2013-03-16 15:02:00,43.0,15.0,-100.00,WSW,239,27.0,37.0,31,0.00,,,-99.99,,2013-03-16 21:02:00,
2013-03-16 15:12:00,44.0,15.0,-100.00,WSW,244,24.0,33.0,30,0.00,,,-99.99,,2013-03-16 21:12:00,
2013-03-16 15:22:00,45.0,13.0,-100.00,SW,232,26.0,35.0,27,0.00,,,-99.99,,2013-03-16 21:22:00,
2013-03-16 15:32:00,44.0,12.0,-100.00,WSW,237,26.0,32.0,27,0.00,,,-99.99,,2013-03-16 21:32:00,
2013-03-16 15:43:00,45.0,12.0,-100.00,SW,234,27.0,36.0,26,0.00,,,-99.99,,2013-03-16 21:43:00,
2013-03-16 15:52:00,44.0,10.0,-100.00,WSW,237,27.0,35.0,25,0.00,,,-99.99,,2013-03-16 21:52:00,
2013-03-16 16:03:00,45.0,9.0,-100.00,SW,236,27.0,36.0,23,0.00,,,-99.99,,2013-03-16 22:03:00,
2013-03-16 16:12:00,45.0,9.0,-100.00,SW,234,26.0,36.0,23,0.00,,,-99.99,,2013-03-16 22:12:00,
2013-03-16 16:22:00,44.0,9.0,-100.00,WSW,239,26.0,34.0,24,0.00,,,-99.99,,2013-03-16 22:22:00,
2013-03-16 16:33:00,44.0,10.0,-100.00,SW,236,25.0,35.0,24,0.00,,,-99.99,,2013-03-16 22:33:00,
2013-03-16 16:42:00,44.0,11.0,-100.00,WSW,239,25.0,34.0,25,0.00,,,-99.99,,2013-03-16 22:42:00,
2013-03-16 16:52:00,44.0,9.0,-100.00,SW,233,27.0,35.0,23,0.00,,,-99.99,,2013-03-16 22:52:00,
2013-03-16 17:02:00,44.0,9.0,-100.00,WSW,237,25.0,34.0,24,0.00,,,-99.99,,2013-03-16 23:02:00,
2013-03-16 17:12:00,45.0,8.0,-100.00,WSW,244,24.0,32.0,22,0.00,,,-99.99,,2013-03-16 23:12:00,
2013-03-16 17:22:00,45.0,7.0,-100.00,WSW,257,24.0,32.0,21,0.00,,,-99.99,,2013-03-16 23:22:00,
2013-03-16 17:33:00,45.0,6.0,-100.00,WSW,253,25.0,32.0,19,0.00,,,-99.99,,2013-03-16 23:33:00,
2013-03-16 17:42:00,44.0,6.0,-100.00,WSW,250,24.0,33.0,20,0.00,,,-99.99,,2013-03-16 23:42:00,
2013-03-16 17:52:00,44.0,4.0,-100.00,WSW,253,23.0,32.0,18,0.00,,,-99.99,,2013-03-16 23:52:00,
2013-03-16 18:01:00,44.0,6.0,-100.00,WSW,257,22.0,29.0,21,0.00,,,-99.99,,2013-03-17 00:01:00,
2013-03-16 18:12:00,44.0,8.0,-100.00,WSW,256,22.0,29.0,22,0.00,,,-99.99,,2013-03-17 00:12:00,
2013-03-16 18:22:00,43.0,10.0,-100.00,WSW,244,20.0,27.0,25,0.00,,,-99.99,,2013-03-17 00:22:00,
2013-03-16 18:32:00,43.0,8.0,-100.00,WSW,240,18.0,26.0,24,0.00,,,-99.99,,2013-03-17 00:32:00,
2013-03-16 18:42:00,42.0,9.0,-100.00,WSW,239,16.0,22.0,25,0.00,,,-99.99,,2013-03-17 00:42:00,
2013-03-16 18:52:00,42.0,11.0,-100.00,WSW,244,16.0,23.0,28,0.00,,,-99.99,,2013-03-17 00:52:00,
2013-03-16 19:02:00,41.0,11.0,-100.00,SW,230,16.0,24.0,28,0.00,,,-99.99,,2013-03-17 01:02:00,
2013-03-16 19:12:00,41.0,10.0,-100.00,SW,227,16.0,24.0,28,0.00,,,-99.99,,2013-03-17 01:12:00,
2013-03-16 19:22:00,40.0,8.0,-100.00,SW,224,17.0,22.0,27,0.00,,,-99.99,,2013-03-17 01:22:00,
2013-03-16 19:32:00,39.0,8.0,-100.00,SW,222,16.0,22.0,27,0.00,,,-99.99,,2013-03-17 01:32:00,
2013-03-16 19:42:00,39.0,8.0,-100.00,SW,234,17.0,21.0,27,0.00,,,-99.99,,2013-03-17 01:42:00,
2013-03-16 19:52:00,38.0,9.0,-100.00,SW,232,13.0,19.0,29,0.00,,,-99.99,,2013-03-17 01:52:00,
2013-03-16 20:02:00,38.0,9.0,-100.00,SW,220,14.0,22.0,29,0.00,,,-99.99,,2013-03-17 02:02:00,
2013-03-16 20:12:00,38.0,8.0,-100.00,SW,215,17.0,22.0,27,0.00,,,-99.99,,2013-03-17 02:12:00,
2013-03-16 20:22:00,37.0,9.0,-100.00,SSW,212,16.0,21.0,30,0.00,,,-99.99,,2013-03-17 02:22:00,
2013-03-16 20:33:00,37.0,8.0,-100.00,SSW,209,14.0,19.0,30,0.00,,,-99.99,,2013-03-17 02:33:00,
2013-03-16 20:42:00,36.0,8.0,-100.00,SSW,209,16.0,20.0,30,0.00,,,-99.99,,2013-03-17 02:42:00,
2013-03-16 20:52:00,37.0,8.0,-100.00,SSW,212,17.0,21.0,30,0.00,,,-99.99,,2013-03-17 02:52:00,
2013-03-16 21:02:00,37.0,8.0,-100.00,SSW,213,17.0,21.0,30,0.00,,,-99.99,,2013-03-17 03:02:00,
2013-03-16 21:22:00,35.0,9.0,-100.00,SSW,208,15.0,19.0,32,0.00,,,-99.99,,2013-03-17 03:22:00,
2013-03-16 21:33:00,35.0,8.0,-100.00,SSW,210,14.0,17.0,31,0.00,,,-99.99,,2013-03-17 03:33:00,
2013-03-16 21:43:00,36.0,8.0,-100.00,SSW,212,16.0,20.0,31,0.00,,,-99.99,,2013-03-17 03:43:00,
2013-03-16 21:52:00,35.0,8.0,-100.00,SSW,212,14.0,19.0,32,0.00,,,-99.99,,2013-03-17 03:52:00,
2013-03-16 22:03:00,36.0,8.0,-100.00,SSW,212,16.0,19.0,31,0.00,,,-99.99,,2013-03-17 04:03:00,
2013-03-16 22:12:00,36.0,7.0,-100.00,SSW,212,16.0,19.0,30,0.00,,,-99.99,,2013-03-17 04:12:00,
2013-03-16 22:23:00,36.0,8.0,-100.00,SSW,209,18.0,24.0,30,0.00,,,-99.99,,2013-03-17 04:23:00,
2013-03-16 22:32:00,36.0,8.0,-100.00,SSW,208,19.0,24.0,30,0.00,,,-99.99,,2013-03-17 04:32:00,
2013-03-16 22:42:00,36.0,8.0,-100.00,SSW,210,19.0,26.0,30,0.00,,,-99.99,,2013-03-17 04:42:00,
2013-03-16 22:53:00,35.0,8.0,-100.00,SSW,213,18.0,23.0,31,0.00,,,-99.99,,2013-03-17 04:53:00,
2013-03-16 23:02:00,35.0,8.0,-100.00,SSW,212,17.0,20.0,31,0.00,,,-99.99,,2013-03-17 05:02:00,
2013-03-16 23:12:00,35.0,7.0,-100.00,SSW,213,17.0,22.0,29,0.00,,,-99.99,,2013-03-17 05:12:00,
2013-03-16 23:22:00,34.0,8.0,-100.00,SW,215,15.0,19.0,33,0.00,,,-99.99,,2013-03-17 05:22:00,
2013-03-16 23:32:00,33.0,7.0,-100.00,SSW,199,15.0,19.0,33,0.00,,,-99.99,,2013-03-17 05:32:00,
2013-03-16 23:42:00,33.0,8.0,-100.00,SSW,202,16.0,21.0,34,0.00,,,-99.99,,2013-03-17 05:42:00,
2013-03-16 23:52:00,34.0,8.0,-100.00,SSW,203,16.0,21.0,33,0.00,,,-99.99,,2013-03-17 05:52:00,